#timestamp,LO_Frequency,Hit,StdDev 
1569974415.2,286047000.0,N
1569974435.1,286047002.3,N
1569974436.0,286047002.3,N
1569974455.8,286047000.1,N
1569974475.6,286047001.7,N
1569974495.5,286047005.6,N
1569974515.3,286047004.1,N
1569974535.2,286047002.0,N
1569974555.9,286047000.1,N
1569974575.7,286046999.8,N
1569974595.6,286047000.0,N
1569974615.4,286047000.2,N
1569974635.2,286046999.8,N
1569974655.1,286047002.0,N
1569974656.0,286047002.0,N
1569974675.8,286047001.9,N
1569974695.7,286047002.6,N
1569974715.5,286047002.5,N
1569974735.3,286047001.8,N
1569974755.2,286047002.0,N
1569974775.0,286047002.4,N
1569974775.9,286047002.4,N
1569974795.8,286047000.0,N
1569974815.6,286047000.2,N
1569974835.4,286047002.3,N
1569974855.3,286047000.9,N
1569974875.1,286047002.4,N
1569974895.9,286047004.0,N
1569974915.7,286047002.3,N
1569974935.5,286047002.8,N
1569974955.4,286047000.2,N
1569974975.2,286047002.1,N
1569974995.0,286047002.4,N
1569974995.9,286047002.4,N
1569975015.8,286047002.3,N
1569975035.6,286047001.5,N
1569975055.5,286047002.5,N
1569975075.3,286047001.6,N
1569975095.1,286047004.4,Y
1569975115.9,286047000.2,P
1569975135.7,286047000.2,N
1569975155.6,286047000.8,N
1569975175.4,286047000.9,N
1569975195.2,286046998.7,N
1569975215.1,286046999.6,N
1569975216.0,286046999.6,N
1569975235.8,286046998.9,N
1569975255.6,286047001.2,N
1569975275.5,286047000.4,N
1569975295.3,286047002.4,N
1569975315.2,286047002.7,N
1569975335.9,286047004.2,Y
1569975355.7,286047002.6,P
1569975375.6,286047000.5,N
1569975395.4,286046998.6,N
1569975415.2,286046998.3,N
1569975435.1,286046998.3,N
1569975455.8,286046999.4,N
1569975475.7,286046999.5,N
1569975495.5,286046999.1,N
1569975515.4,286047001.1,N
1569975535.2,286047000.8,N
1569975555.0,286046999.3,N
1569975555.9,286046999.3,N
1569975575.8,286046998.3,N
1569975595.6,286047000.9,N
1569975615.5,286047001.1,N
1569975635.3,286047001.1,N
1569975655.1,286047001.0,N
1569975675.9,286047000.9,N
1569975695.7,286046999.7,N
1569975715.6,286046999.7,N
1569975735.4,286047002.5,N
1569975755.2,286047000.0,N
1569975775.1,286046998.1,N
1569975776.0,286046998.1,N
1569975795.8,286047001.0,N
1569975815.6,286047002.6,N
1569975835.5,286047000.9,N
1569975855.3,286047000.6,N
1569975875.2,286047002.3,N
1569975895.9,286047003.3,N
1569975915.7,286047003.2,N
1569975935.6,286047002.5,N
1569975955.4,286047000.7,N
1569975975.2,286047000.7,N
1569975995.1,286047001.0,N
1569975996.0,286047001.0,N
1569976015.8,286047001.1,N
1569976035.7,286047001.2,N
1569976055.5,286047000.7,N
1569976075.3,286047002.8,N
1569976095.2,286047004.0,N
1569976115.0,286047003.4,N
1569976115.9,286047003.4,N
1569976135.8,286047005.0,Y
1569976155.6,286047005.3,P
1569976175.4,286047011.9,P
1569976195.3,286047004.7,N
1569976215.1,286047004.6,N
1569976235.8,286047006.7,N
1569976255.7,286047006.7,N
1569976275.5,286047007.4,N
1569976295.4,286047007.5,N
1569976315.2,286047004.9,N
1569976335.0,286047004.5,N
1569976335.9,286047004.5,N
1569976355.8,286047007.6,Y
1569976375.6,286047001.2,P
1569976395.5,286047000.8,N
1569976415.3,286046998.5,N
1569976435.1,286047001.1,N
1569976455.9,286046998.8,N
1569976475.7,286046998.3,N
1569976495.6,286046998.1,N
1569976515.4,286046996.7,N
1569976535.2,286046999.1,N
1569976555.1,286046998.3,N
1569976556.0,286046998.3,N
1569976575.8,286046999.1,N
1569976595.6,286046996.9,N
1569976615.5,286046996.9,N
1569976635.3,286046996.7,N
1569976655.2,286046999.4,N
1569976675.9,286046996.5,N
1569976695.7,286046996.7,N
1569976715.6,286046997.2,N
1569976735.4,286046997.8,N
1569976755.3,286046997.8,N
1569976775.1,286046997.6,N
1569976776.0,286046997.6,N
1569976795.8,286046996.2,N
1569976815.7,286046995.9,N
1569976835.5,286046996.2,N
1569976855.3,286046995.4,N
1569976875.2,286046995.2,N
1569976895.0,286046997.4,N
1569976895.9,286046997.4,N
1569976915.8,286046995.5,N
1569976935.6,286046996.3,N
1569976955.4,286046994.1,Y
1569976975.3,286046996.1,P
1569976995.1,286046995.2,P
1569977015.9,286046995.3,P
1569977035.7,286046995.7,Y
1569977055.5,286046999.0,P
1569977075.4,286046999.3,N
1569977095.2,286046998.3,N
1569977115.1,286047000.8,N
1569977116.0,286047000.8,N
1569977135.8,286047000.9,N
1569977155.6,286047000.5,N
1569977175.5,286047000.7,N
1569977195.3,286046999.8,N
1569977215.1,286046998.6,N
1569977235.9,286046996.5,N
1569977255.7,286046997.5,N
1569977275.6,286046998.0,N
1569977295.4,286046994.9,Y
1569977315.2,286046996.9,P
1569977335.1,286046997.4,N
1569977336.0,286046997.4,N
1569977355.8,286046995.5,Y
1569977375.7,286046997.2,P
1569977395.5,286046996.8,P
1569977415.3,286046999.1,N
1569977435.2,286046996.5,Y
1569977455.0,286047000.9,P
1569977455.9,286047000.9,N
1569977475.8,286046998.6,N
1569977495.6,286046999.5,N
1569977515.4,286046996.5,N
1569977535.3,286046996.5,N
1569977555.1,286046999.3,N
1569977575.9,286046999.3,N
1569977595.7,286046998.7,N
1569977615.5,286046998.4,N
1569977635.4,286047001.0,N
1569977655.2,286047002.3,N
1569977675.0,286047004.4,N
1569977675.9,286047004.4,N
1569977695.8,286047002.3,N
1569977715.6,286047000.5,N
1569977735.5,286046998.8,N
1569977755.3,286046998.2,N
1569977775.1,286046998.3,N
1569977795.9,286046999.1,N
1569977815.7,286046999.4,N
1569977835.6,286046998.5,N
1569977855.4,286047000.7,N
1569977875.2,286047002.6,N
1569977895.1,286047001.8,N
1569977896.0,286047001.8,N
1569977915.8,286047006.0,N
1569977935.6,286047004.3,N
1569977955.5,286047001.8,N
1569977975.3,286046999.8,N
1569977995.2,286047002.7,N
